Regional Weather Roundup
Issued by NWS Kansas City/Pleasant Hill, MO

Home | Current Version | Previous Version | Graphics & Text | Print | Product List | Glossary Off
Versions: 1 2 3 4 5 6 7 8 9 10 11 12 13 14 15 16 17 18 19 20 21 22 23 24 25 26 27 28 29 30 31 32 33 34 35 36 37 38 39 40 41 42 43 44 45 46 47 48 49 50

000
ASUS43 KEAX 230310
RWREAX

WEATHER ROUNDUP FOR EASTERN KANSAS AND NORTHWEST MISSOURI
NATIONAL WEATHER SERVICE KANSAS CITY/PLEASANT HILL MO
1000 PM CDT FRI JUL 22 2016

KSZ040-057-103>105-MOZ028-029-037-043-230400-
...KANSAS CITY METROPOLITAN AREA...

CITY           SKY/WX    TMP DP  RH WIND       PRES   REMARKS
K.C. INTL      PTCLDY    86  75  69 SE12      29.95R HX  95
K.C. DOWNTOWN  CLEAR     90  74  59 S10       29.94R HX  99
LEES SUMMIT    CLEAR     87  77  72 S12       29.97S HX  99
OLATHE - IXD   CLOUDY    85  73  67 SE10      29.97R HX  91
OLATHE - OJC   CLEAR     84  74  71 S9        29.97R HX  91
LAWRENCE       PTCLDY    83  75  77 SE7       29.93R HX  90

$$

MOZ001>008-011>017-020>025-030>033-038>040-044>046-053-054-230400-
...NORTHERN AND CENTRAL MISSOURI...

CITY           SKY/WX    TMP DP  RH WIND       PRES   REMARKS
ST. JOSEPH     PTCLDY    86  77  74 SE12      29.93R HX  97
MOSBY          CLEAR     84  77  79 SE5       29.95S HX  94
WHITEMAN AFB   PTCLDY    83  79  88 S7        29.99R HX  93
CLINTON        CLEAR     82  79  89 CALM      30.00R HX  93
SEDALIA        CLOUDY    83  77  82 S7        30.02R HX  92
WARSAW         NOT AVBL
CHILLICOTHE      N/A     85  78  80 SE6       29.98R HX  96
KIRKSVILLE     CLEAR     78  74  87 S6        30.01R

$$

MOZ041-047>049-056>058-063>065-088>090-097-230400-
...EASTERN AND SOUTHERN MISSOURI...

CITY           SKY/WX    TMP DP  RH WIND       PRES   REMARKS
ST. LOUIS INTL CLOUDY    83  71  67 S6        30.04R
SPIRIT OF STL  CLOUDY    78  76  93 CALM      30.02R
COLUMBIA       CLEAR     81  77  88 SE6       30.02R
JEFFERSON CITY CLEAR     80  78  94 SE5       30.01R
ROLLA          CLEAR     79  76  90 SE7       30.04R
OSAGE BEACH    CLEAR     83  78  85 SE3       30.03R HX  93
SPRINGFIELD    CLEAR     83  72  69 S5        30.03R
BRANSON        CLEAR     84  73  70 S6        30.06R HX  91
JOPLIN         CLEAR     85  73  67 SE6       30.00R HX  91
WEST PLAINS    MOCLDY    84  74  71 CALM      30.07R HX  91

$$

IAZ060-094-KSZ022-034>040-054-083-096-NEZ052-066-093-230400-
...KANSAS...SOUTHEAST NEBRASKA AND IOWA...

CITY           SKY/WX    TMP DP  RH WIND       PRES   REMARKS
TOPEKA         PTCLDY    88  72  58 SE12      29.92R HX  94
MANHATTAN      CLOUDY    89  71  55 S5        29.89R HX  95
EMPORIA        PTCLDY    85  73  67 SE10      29.94R HX  91
CHANUTE        CLEAR     85  73  67 SE7       29.97R HX  91
WICHITA        PTCLDY    90  69  50 SE12      29.93R HX  94
OMAHA          PTCLDY    87  80  79 SE12      29.90R HX 103
LINCOLN        CLEAR     82  71  69 SE7       29.90R
FALLS CITY     PTCLDY    86  80  82 S5        29.93R HX 101
LAMONI         CLEAR     81  77  88 S7        29.97R
DES MOINES     PTCLDY    85  78  80 SE9       29.95R HX  96

$$




USA.gov is the U.S. government's official web portal to all federal, state and local government web resources and services.